カタログに戻る

FENGYUN 1C DEB

運用中PO
NORAD 30872·DEBRIS·🇨🇳 China

打ち上げ May 10, 1999 から Taiyuan Satellite Launch Center

Loading…

次のパス (今後24時間)

TLE

最新Source: Space-Track

元期: Sep 14, 2026, 04:35 UTC

1 30872U 99025AXJ 26257.19156714  .00001479  00000-0  47321-3 0  9992
2 30872  99.1650 334.2132 0040777 300.1089  86.9018 14.40784017 16865

AllMySatでFENGYUN 1C DEBをリアルタイム追跡

Download on the App Store